• MPC Preparation (Info)

  • MPEC 2016-O240: 2014 WG510

    The following Minor Planet Electronic Circular may be linked-to from your own Web pages, but must not otherwise be redistributed electronically.

    A form allowing access to any MPEC is at the bottom of this page.


    Read MPEC 2016-O239 Read MPEC 2016-O241


    M.P.E.C. 2016-O240                               Issued 2016 July 17, 19:04 UT
    
         The Minor Planet Electronic Circulars contain information on unusual
             minor planets and routine data on comets.  They are published
        on behalf of Division F of the International Astronomical Union by the
              Minor Planet Center, Smithsonian Astrophysical Observatory,
                              Cambridge, MA 02138, U.S.A.
    
                 Prepared using the Tamkin Foundation Computer Network
    
                                  MPC@CFA.HARVARD.EDU
                URL https://www.minorplanetcenter.net/    ISSN 1523-6714
    
                                      2014 WG510
    
    Observations:
         K14Wp0G  C2011 10 23.44162 04 16 59.774+03 46 04.27         22.1 wLEO240F51
         K14Wp0G  C2011 10 23.45653 04 16 59.706+03 46 03.73         22.1 wLEO240F51
         K14Wp0G  C2011 10 23.47139 04 16 59.640+03 46 03.50         21.9 wLEO240F51
         K14Wp0G  C2011 10 23.48633 04 16 59.578+03 46 02.73         22.0 wLEO240F51
         K14Wp0G  C2014 01 21.24477 04 23 32.810+03 55 30.53         22.3 wLEO240F51
         K14Wp0G  C2014 01 21.25765 04 23 32.766+03 55 30.79         22.4 wLEO240F51
         K14Wp0G  C2014 01 21.27064 04 23 32.728+03 55 31.05         22.4 wLEO240F51
         K14Wp0G  C2014 01 21.28369 04 23 32.687+03 55 31.20         22.2 wLEO240F51
         K14Wp0G* C2014 11 23.46045 04 35 04.095+04 06 21.62         21.9 wLEO240F51
         K14Wp0G  C2014 11 23.47260 04 35 04.034+04 06 21.61         22.1 wLEO240F51
         K14Wp0G  C2014 11 23.48475 04 35 03.947+04 06 21.36         22.0 wLEO240F51
         K14Wp0G  C2014 11 23.49693 04 35 03.875+04 06 21.34         22.0 wLEO240F51
         K14Wp0G  C2015 01 09.25980 04 31 02.598+04 03 24.48         22.2 wLEO240F51
         K14Wp0G  C2015 01 09.27287 04 31 02.547+04 03 24.72         22.1 wLEO240F51
         K14Wp0G  C2015 01 09.28596 04 31 02.480+04 03 24.90         22.4 wLEO240F51
         K14Wp0G  C2015 01 09.29909 04 31 02.427+04 03 24.97         22.0 wLEO240F51
         K14Wp0G  C2015 01 15.22469 04 30 39.716+04 04 33.25         22.3 wLEO240F51
         K14Wp0G  C2015 01 15.23624 04 30 39.656+04 04 33.44         22.4 wLEO240F51
         K14Wp0G  C2015 01 15.24772 04 30 39.624+04 04 33.52         22.2 wLEO240F51
         K14Wp0G  C2015 01 15.25923 04 30 39.574+04 04 33.76         22.3 wLEO240F51
         K14Wp0G  C2015 01 19.22671 04 30 26.022+04 05 30.36         22.1 wLEO240F51
         K14Wp0G  C2015 01 19.25087 04 30 25.943+04 05 30.83         22.2 wLEO240F51
         K14Wp0G  C2015 01 19.26296 04 30 25.901+04 05 31.00         22.2 wLEO240F51
    
    Observer details:
    F51 Pan-STARRS 1, Haleakala.  Observers B. Gibson, T. Goggia, N. Primak,
        A. Schultz, M. Willman.  Measurers K. Chambers, S. Chastel, Y.-T. Chen,
        L. Denneau, H. Flewelling, M. Holman, M. Huber, R. Jedicke, M. Lackner,
        E. Lilly, H.-W. Lin, E. Magnier, M. Micheli, M. Payne, P. Veres,
        R. Wainscoat, C. Waters, R. Weryk.  1.8-m Ritchey-Chretien + CCD.
    
    Orbital elements:
    2014 WG510
    Epoch 2016 July 31.0 TT = JDT 2457600.5                 MPC
    M  62.26694              (2000.0)            P               Q
    n   0.00402471     Peri.  176.88841     +0.96411413     +0.25752361
    a  39.1422901      Node   167.59975     -0.24960972     +0.96207099
    e   0.2135978      Incl.   17.49091     -0.09043743     +0.09000560
    P 245              H    6.3           G   0.15           U   2
    Residuals in seconds of arc
    111023 F51  0.0   0.1+    141123 F51  0.1+  0.2-    150115 F51  0.1+  0.0
    111023 F51  0.0   0.0     141123 F51  0.2+  0.0     150115 F51  0.1-  0.1+
    111023 F51  0.0   0.2+    141123 F51  0.1-  0.0     150115 F51  0.0   0.0
    111023 F51  0.0   0.1-    141123 F51  0.2-  0.2+    150115 F51  0.1-  0.1+
    140121 F51  0.1+  0.2-    150109 F51  0.0   0.1-    150119 F51  0.0   0.1+
    140121 F51  0.0   0.2-    150109 F51  0.1+  0.0     150119 F51  0.1+  0.2+
    140121 F51  0.0   0.1-    150109 F51  0.1-  0.1+    150119 F51  0.0   0.2+
    140121 F51  0.0   0.2-    150109 F51  0.1-  0.0
    
    Ephemeris:
    2014 WG510               a,e,i = 39.14, 0.21, 17                 q = 30.782
    Date    TT    R. A. (2000) Decl.     Delta      r     Elong.  Phase     V
    2016 06 17    04 45 44.0 +05 17 21  37.7511 36.8159    22.7     0.6    22.1
    ...
    2016 07 02    04 47 26.0 +05 18 01  37.6693 36.8249    33.4     0.9    22.2
    ...
    2016 07 10    04 48 16.6 +05 17 36  37.6040 36.8297    39.9     1.0    22.2
    ...
    2016 07 16    04 48 52.3 +05 16 56  37.5461 36.8333    44.9     1.1    22.2
    2016 07 17    04 48 58.0 +05 16 48  37.5357 36.8339    45.8     1.1    22.2
    2016 07 18    04 49 03.7 +05 16 39  37.5252 36.8345    46.6     1.1    22.2
    ...
    2016 07 24    04 49 36.2 +05 15 37  37.4580 36.8381    51.8     1.2    22.2
    ...
    2016 08 01    04 50 15.3 +05 13 48  37.3589 36.8429    58.8     1.3    22.2
    ...
    2016 08 16    04 51 13.9 +05 09 12  37.1496 36.8519    72.2     1.5    22.2
    
    A. U. Tomatic                (C) Copyright 2016 MPC           M.P.E.C. 2016-O240
    

    Read MPEC 2016-O239 Read MPEC 2016-O241


    MPEC number:

    Enter an MPEC number in one of the following forms:

    • 1997-B01 (the full form)
    • J97B01 (the packed version of the full form)
    • B01 (the abbreviated form)